"2010-08-27 00:00:00",106861,3.919,155.1,3.567,0.154,23.97,111.5922,28.99,29.84,9.12,0,111.6,13.04,29.84,117.1
"2010-08-27 00:00:30",106862,4.061,163,2.475,0.159,24.04,111.5925,28.99,29.83,9.06,0,111.6,13.04,29.84,125.0
"2010-08-27 00:01:00",106863,4.337,154.8,6.298,0.211,24.02,111.5942,28.99,29.84,9.05,0,111.6,13.04,29.85,116.8
"2010-08-27 00:01:30",106864,4.198,143.1,2.19,0.226,24.02,111.5945,28.99,29.84,9.04,0,111.5,13.04,29.85,105.1
"2010-08-27 00:02:00",106865,4.192,152.1,3.266,0.326,24.02,111.5951,29,29.84,9.18,0,111.5,13.04,29.85,114.1
"2010-08-27 00:02:30",106866,5.515,146.4,3.04,0.572,24.05,111.5945,28.99,29.84,9.42,0,111.6,13.03,29.85,108.4
"2010-08-27 00:03:00",106867,5.275,136.1,2.845,0.275,24.05,111.592,28.99,29.83,9.41,0,111.5,13.04,29.84,98.1
"2010-08-27 00:03:30",106868,5.218,133.7,3.411,0.206,24.02,111.5847,28.97,29.84,9.35,0,111.5,13.04,29.82,95.7
"2010-08-27 00:04:00",106869,5.174,138.2,4.976,0.365,24.01,111.5754,28.95,29.84,9.23,0,111.5,13.04,29.80,100.2
"2010-08-27 00:04:30",106870,5.029,138.9,3.069,0.243,24.03,111.5698,28.93,29.84,9.2,0,111.5,13.04,29.78,100.9
"2010-08-27 00:05:00",106871,4.715,142.6,1.651,0.142,24.02,111.5695,28.93,29.82,9.19,0,111.5,13.04,29.78,104.6
"2010-08-27 00:05:30",106872,4.426,139.7,2.628,0.183,23.94,111.5631,28.91,29.81,9.18,0,111.6,13.05,29.77,101.7
"2010-08-27 00:06:00",106873,5.185,143.5,3.131,0.381,24.02,111.5614,28.91,29.81,9.23,0,111.6,13.05,29.76,105.5
"2010-08-27 00:06:30",106874,5.13,142.1,3.891,0.225,24.03,111.5611,28.91,29.81,9.22,0,111.6,13.05,29.76,104.1
"2010-08-27 00:07:00",106875,4.803,133.1,2.341,0.129,23.97,111.5614,28.91,29.79,9.2,0,111.5,13.05,29.76,95.1
"2010-08-27 00:07:30",106876,4.537,142.2,2.208,0.164,24.01,111.5561,28.9,29.78,9.2,0,111.5,13.05,29.75,104.2
"2010-08-27 00:08:00",106877,4.463,138.4,2.401,0.093,24.01,111.5474,28.87,29.78,9.26,0,111.5,13.05,29.73,100.4
"2010-08-27 00:08:30",106878,4.476,147.7,7.952,0.225,24.09,111.5452,28.87,29.77,9.35,0,111.5,13.05,29.72,109.7
"2010-08-27 00:09:00",106879,4.3,159.7,1.905,0.202,24.14,111.5502,28.88,29.77,9.33,0,111.5,13.05,29.73,121.7
"2010-08-27 00:09:30",106880,4.289,156,7.002,0.294,24.12,111.5592,28.9,29.76,9.34,0,111.5,13.05,29.76,118.0
"2010-08-27 00:10:00",106881,4.619,152.3,9.5,0.373,24.17,111.5627,28.91,29.77,9.43,0,111.5,13.05,29.76,114.3
"2010-08-27 00:10:30",106882,4.604,160.3,2.748,0.258,24.22,111.5633,28.91,29.79,9.61,0,111.5,13.05,29.77,122.3
"2010-08-27 00:11:00",106883,4.718,160.1,2.52,0.276,24.17,111.5706,28.93,29.8,9.61,0,111.5,13.05,29.79,122.1
"2010-08-27 00:11:30",106884,5.082,158.5,3.652,0.473,24.16,111.5753,28.94,29.81,9.3,0,111.5,13.05,29.80,120.5
"2010-08-27 00:12:00",106885,5.088,152.4,2.812,0.257,24.1,111.5821,28.96,29.8,9.06,0,111.5,13.05,29.82,114.4
"2010-08-27 00:12:30",106886,5.119,150.2,2.322,0.123,24.06,111.5868,28.97,29.83,9.17,0,111.5,13.05,29.83,112.2
"2010-08-27 00:13:00",106887,5.244,148,2.181,0.179,24.13,111.5882,28.98,29.81,9.45,0,111.5,13.05,29.83,110.0
"2010-08-27 00:13:30",106888,4.98,146.8,2.528,0.226,24.13,111.5918,28.99,29.84,9.31,0,111.5,13.05,29.84,108.8
"2010-08-27 00:14:00",106889,5.207,149.7,3.14,0.168,24.11,111.5903,28.98,29.82,9.02,0,111.5,13.05,29.84,111.7
"2010-08-27 00:14:30",106890,4.92,148.5,2.057,0.164,24.16,111.5958,29,29.83,9.15,0,111.5,13.05,29.85,110.5
"2010-08-27 00:15:00",106891,5.113,146.8,1.528,0.125,24.15,111.5964,29,29.84,8.94,0,111.5,13.05,29.85,108.8
"2010-08-27 00:15:30",106892,5.013,150.3,1.865,0.088,24.16,111.5968,29,29.84,8.75,0,111.5,13.05,29.85,112.3
"2010-08-27 00:16:00",106893,4.859,153.5,2.408,0.112,24.15,111.5979,29,29.85,8.81,0,111.5,13.05,29.86,115.5
"2010-08-27 00:16:30",106894,5.315,147.1,1.474,0.219,24.14,111.5959,29,29.85,8.7,0,111.5,13.05,29.85,109.1
"2010-08-27 00:17:00",106895,5.238,148,1.96,0.119,24.1,111.5962,29,29.85,8.69,0,111.5,13.05,29.85,110.0
"2010-08-27 00:17:30",106896,4.955,151.7,1.821,0.236,24.13,111.6002,29.01,29.85,8.69,0,111.5,13.05,29.86,113.7
"2010-08-27 00:18:00",106897,4.657,149.6,3.131,0.237,24.11,111.6022,29.01,29.85,8.72,0,111.5,13.05,29.87,111.6
"2010-08-27 00:18:30",106898,4.215,147.9,3.691,0.261,24.15,111.6013,29.01,29.86,8.86,0,111.5,13.05,29.86,109.9
"2010-08-27 00:19:00",106899,4.56,147.7,1.907,0.142,24.12,111.5994,29.01,29.86,8.89,0,111.5,13.05,29.86,109.7
"2010-08-27 00:19:30",106900,4.577,147.6,3.065,0.164,24.16,111.5949,29,29.86,8.91,0,111.5,13.05,29.85,109.6
"2010-08-27 00:20:00",106901,4.811,148,3.891,0.129,24.2,111.591,28.98,29.86,8.96,0,111.5,13.05,29.84,110.0
"2010-08-27 00:20:30",106902,4.972,137.9,1.573,0.163,24.11,111.5857,28.97,29.85,9.14,0,111.5,13.05,29.82,99.9
"2010-08-27 00:21:00",106903,4.922,138.7,4.476,0.149,24.1,111.5798,28.96,29.84,9.19,0,111.5,13.05,29.81,100.7
"2010-08-27 00:21:30",106904,5.244,131,2.354,0.24,24.11,111.5775,28.95,29.84,9.27,0,111.5,13.05,29.80,93.0
"2010-08-27 00:22:00",106905,5.206,143.8,4.15,0.163,24.13,111.5708,28.93,29.84,9.27,0,111.5,13.05,29.79,105.8
"2010-08-27 00:22:30",106906,5.798,147.3,3.282,0.454,24.15,111.5705,28.93,29.82,9.14,0,111.5,13.05,29.79,109.3
"2010-08-27 00:23:00",106907,5.984,149.7,5.322,0.205,24.17,111.57,28.93,29.81,9.07,0,111.5,13.05,29.78,111.7
"2010-08-27 00:23:30",106908,5.745,146,2.594,0.223,24.12,111.5686,28.93,29.81,9.13,0,111.5,13.05,29.78,108.0
"2010-08-27 00:24:00",106909,5.102,153.9,1.98,0.195,24.18,111.568,28.93,29.81,9.1,0,111.5,13.05,29.78,115.9
"2010-08-27 00:24:30",106910,4.796,149.7,2.378,0.17,24.16,111.5672,28.92,29.8,9.02,0,111.5,13.05,29.78,111.7
"2010-08-27 00:25:00",106911,5.085,148.5,2.976,0.152,24.12,111.568,28.93,29.81,9.11,0,111.5,13.05,29.78,110.5
"2010-08-27 00:25:30",106912,5.108,149.5,1.743,0.181,24.14,111.5658,28.92,29.81,9.11,0,111.5,13.05,29.77,111.5
"2010-08-27 00:26:00",106913,5.179,147.9,0.886,0.145,24.19,111.5627,28.91,29.79,8.97,0,111.5,13.05,29.76,109.9
"2010-08-27 00:26:30",106914,5.311,150.4,1.536,0.116,24.17,111.5624,28.91,29.79,9.05,0,111.5,13.05,29.76,112.4
"2010-08-27 00:27:00",106915,5.454,153.1,2.455,0.11,24.24,111.5618,28.91,29.8,8.85,0,111.5,13.05,29.76,115.1
"2010-08-27 00:27:30",106916,5.511,150,1.376,0.17,24.25,111.5621,28.91,29.8,8.88,0,111.5,13.05,29.76,112.0
"2010-08-27 00:28:00",106917,5.437,148.7,2.372,0.08,24.28,111.5587,28.9,29.79,8.81,0,111.5,13.05,29.75,110.7
"2010-08-27 00:28:30",106918,5.551,153.4,1.712,0.101,24.42,111.5576,28.9,29.79,8.76,0,111.5,13.05,29.75,115.4
"2010-08-27 00:29:00",106919,5.662,153.8,1.013,0.221,24.42,111.5501,28.88,29.79,8.79,0,111.5,13.05,29.73,115.8
"2010-08-27 00:29:30",106920,5.429,152.6,1.646,0.232,24.52,111.549,28.88,29.78,8.76,0,111.5,13.05,29.73,114.6
"2010-08-27 00:30:00",106921,5.202,153.5,2.917,0.159,24.49,111.548,28.87,29.8,8.84,0,111.5,13.05,29.73,115.5
"2010-08-27 00:30:30",106922,5.529,154.1,5.121,0.132,24.42,111.5487,28.88,29.8,8.74,0,111.5,13.05,29.73,116.1
"2010-08-27 00:31:00",106923,5.619,150.3,3.967,0.221,24.41,111.5503,28.88,29.8,8.75,0,111.5,13.05,29.73,112.3
"2010-08-27 00:31:30",106924,5.42,151.4,4.44,0.214,24.44,111.5565,28.9,29.79,8.96,0,111.5,13.05,29.75,113.4
"2010-08-27 00:32:00",106925,5.483,143.2,2.638,0.179,24.35,111.5551,28.89,29.78,9.05,0,111.5,13.05,29.75,105.2
"2010-08-27 00:32:30",106926,5.366,143.1,2.149,0.243,24.41,111.552,28.88,29.78,8.99,0,111.5,13.05,29.74,105.1
"2010-08-27 00:33:00",106927,5.647,140.1,1.171,0.121,24.45,111.5522,28.89,29.78,8.9,0,111.5,13.05,29.74,102.1
"2010-08-27 00:33:30",106928,5.967,140.1,0.836,0.154,24.49,111.5537,28.89,29.78,8.94,0,111.5,13.05,29.74,102.1
"2010-08-27 00:34:00",106929,6.043,140.4,1.718,0.126,24.49,111.5537,28.89,29.75,9.06,0,111.5,13.05,29.74,102.4
"2010-08-27 00:34:30",106930,5.833,140,2.144,0.199,24.47,111.5519,28.88,29.75,9.09,0,111.5,13.05,29.74,102.0
"2010-08-27 00:35:00",106931,6.141,137.5,1.477,0.176,24.52,111.5478,28.87,29.74,9.01,0,111.5,13.05,29.73,99.5
"2010-08-27 00:35:30",106932,5.983,141.3,1.891,0.253,24.55,111.5398,28.85,29.75,8.96,0,111.5,13.05,29.71,103.3
"2010-08-27 00:36:00",106933,5.989,141.6,1.345,0.125,24.58,111.5376,28.85,29.72,8.94,0,111.5,13.05,29.70,103.6
"2010-08-27 00:36:30",106934,5.862,145.2,1.487,0.132,24.6,111.5353,28.84,29.73,8.93,0,111.5,13.05,29.69,107.2
"2010-08-27 00:37:00",106935,5.778,145.1,1.571,0.105,24.61,111.5317,28.83,29.73,8.97,0,111.5,13.05,29.68,107.1
"2010-08-27 00:37:30",106936,5.921,146.5,1.067,0.156,24.65,111.5317,28.83,29.72,8.98,0,111.5,13.05,29.68,108.5
"2010-08-27 00:38:00",106937,5.778,144.9,1.87,0.212,24.67,111.5317,28.83,29.71,9,0,111.5,13.05,29.68,106.9
"2010-08-27 00:38:30",106938,5.807,142.3,3.513,0.183,24.66,111.5317,28.83,29.73,9.07,0,111.5,13.05,29.68,104.3
"2010-08-27 00:39:00",106939,5.603,145.2,4.131,0.174,24.64,111.5318,28.83,29.71,9.11,0,111.5,13.05,29.69,107.2
"2010-08-27 00:39:30",106940,6.226,152.6,1.525,0.13,24.71,111.5262,28.82,29.69,8.72,0,111.5,13.05,29.67,114.6
"2010-08-27 00:40:00",106941,6.412,150.8,1.427,0.122,24.69,111.5234,28.81,29.7,8.63,0,111.5,13.06,29.66,112.8
"2010-08-27 00:40:30",106942,6.544,149,1.814,0.199,24.7,111.5189,28.8,29.69,8.77,0,111.5,13.06,29.65,111.0
"2010-08-27 00:41:00",106943,6.873,150,1.921,0.139,24.68,111.5152,28.79,29.68,8.63,0,111.5,13.06,29.64,112.0
"2010-08-27 00:41:30",106944,6.703,148,1.928,0.119,24.7,111.5158,28.79,29.68,8.59,0,111.5,13.06,29.64,110.0
"2010-08-27 00:42:00",106945,6.622,146.7,1.273,0.127,24.71,111.5158,28.79,29.69,8.61,0,111.5,13.06,29.64,108.7
"2010-08-27 00:42:30",106946,6.82,148.5,1.633,0.121,24.68,111.5147,28.79,29.67,8.62,0,111.4,13.06,29.64,110.5
"2010-08-27 00:43:00",106947,7.225,147.7,0.91,0.113,24.73,111.5138,28.79,29.69,8.6,0,111.4,13.06,29.64,109.7
"2010-08-27 00:43:30",106948,7.416,149.9,1.115,0.177,24.68,111.513,28.78,29.67,8.62,0,111.4,13.06,29.64,111.9
"2010-08-27 00:44:00",106949,7.382,148.5,1.204,0.188,24.6,111.5144,28.79,29.68,8.65,0,111.4,13.06,29.64,110.5
"2010-08-27 00:44:30",106950,7.308,148.3,1.666,0.137,24.46,111.5124,28.78,29.68,8.65,0,111.4,13.06,29.64,110.3
"2010-08-27 00:45:00",106951,7.268,148.3,0.99,0.14,24.49,111.5128,28.78,29.67,8.64,0,111.4,13.06,29.64,110.3
"2010-08-27 00:45:30",106952,7.301,149.5,1.482,0.159,24.51,111.5142,28.79,29.7,8.58,0,111.4,13.06,29.64,111.5
"2010-08-27 00:46:00",106953,7.144,151.7,1.965,0.143,24.61,111.5096,28.78,29.69,8.6,0,111.4,13.06,29.63,113.7
"2010-08-27 00:46:30",106954,7.074,151.1,1.451,0.159,24.64,111.5096,28.78,29.69,8.63,0,111.4,13.06,29.63,113.1
"2010-08-27 00:47:00",106955,7.113,149.4,1.771,0.175,24.62,111.5099,28.78,29.69,8.72,0,111.4,13.06,29.63,111.4
"2010-08-27 00:47:30",106956,7.074,147.5,1.503,0.109,24.67,111.5118,28.78,29.69,8.85,0,111.4,13.06,29.63,109.5
"2010-08-27 00:48:00",106957,7.16,149.4,0.754,0.044,24.68,111.5111,28.78,29.68,8.63,0,111.4,13.06,29.63,111.4
"2010-08-27 00:48:30",106958,7.111,151.2,0.677,0.044,24.53,111.5084,28.77,29.68,8.55,0,111.4,13.06,29.62,113.2
"2010-08-27 00:49:00",106959,7.019,152.1,0.631,0.08,24.52,111.5124,28.78,29.68,8.5,0,111.4,13.06,29.64,114.1
"2010-08-27 00:49:30",106960,6.961,151,0.718,0.054,24.54,111.5162,28.79,29.7,8.55,0,111.4,13.06,29.64,113.0
"2010-08-27 00:50:00",106961,6.793,151.3,0.476,0.069,24.38,111.5196,28.8,29.69,8.52,0,111.4,13.07,29.65,113.3
"2010-08-27 00:50:30",106962,6.697,151.5,0.653,0.119,24.31,111.5284,28.82,29.69,8.49,0,111.4,13.07,29.68,113.5
"2010-08-27 00:51:00",106963,6.867,152.6,1.611,0.109,24.34,111.5309,28.83,29.69,8.58,0,111.4,13.06,29.68,114.6
"2010-08-27 00:51:30",106964,6.621,151.3,2.113,0.179,24.29,111.5337,28.84,29.69,8.58,0,111.4,13.06,29.69,113.3
"2010-08-27 00:52:00",106965,6.633,153.6,1.05,0.114,24.3,111.5343,28.84,29.69,8.52,0,111.4,13.06,29.69,115.6
"2010-08-27 00:52:30",106966,6.526,155,0.99,0.11,24.26,111.5352,28.84,29.7,8.49,0,111.4,13.06,29.69,117.0
"2010-08-27 00:53:00",106967,6.645,154.7,0.762,0.08,24.28,111.5355,28.84,29.71,8.47,0,111.4,13.06,29.69,116.7
"2010-08-27 00:53:30",106968,6.447,154.6,0.985,0.068,24.18,111.5355,28.84,29.7,8.45,0,111.4,13.06,29.69,116.6
"2010-08-27 00:54:00",106969,6.331,154.7,0.883,0.135,24.27,111.5355,28.84,29.71,8.45,0,111.4,13.06,29.69,116.7
"2010-08-27 00:54:30",106970,6.397,152.4,1.764,0.171,24.28,111.5355,28.84,29.71,8.44,0,111.4,13.06,29.69,114.4
"2010-08-27 00:55:00",106971,6.427,150.6,0.954,0.148,24.26,111.5364,28.84,29.73,8.45,0,111.4,13.06,29.70,112.6
"2010-08-27 00:55:30",106972,6.054,154.7,2.389,0.142,24.35,111.5364,28.84,29.72,8.43,0,111.4,13.06,29.70,116.7
"2010-08-27 00:56:00",106973,6.05,154.5,1.616,0.098,24.31,111.5385,28.85,29.73,8.42,0,111.4,13.06,29.70,116.5
"2010-08-27 00:56:30",106974,6.363,153.7,0.962,0.092,24.26,111.5406,28.86,29.74,8.42,0,111.4,13.06,29.71,115.7
"2010-08-27 00:57:00",106975,6.381,153.4,1.131,0.06,24.26,111.5477,28.87,29.74,8.42,0,111.4,13.07,29.73,115.4
"2010-08-27 00:57:30",106976,6.456,152,1.31,0.099,24.3,111.5473,28.87,29.74,8.41,0,111.4,13.07,29.73,114.0
"2010-08-27 00:58:00",106977,6.582,155.2,1.048,0.152,24.3,111.5454,28.87,29.75,8.41,0,111.4,13.07,29.72,117.2
"2010-08-27 00:58:30",106978,6.53,153.3,1.11,0.113,24.3,111.5475,28.87,29.74,8.39,0,111.4,13.07,29.73,115.3
"2010-08-27 00:59:00",106979,6.641,154.2,0.929,0.073,24.29,111.5476,28.87,29.75,8.38,0,111.4,13.07,29.73,116.2
"2010-08-27 00:59:30",106980,6.45,154.6,1.369,0.141,24.27,111.5483,28.88,29.74,8.37,0,111.4,13.07,29.73,116.6
"2010-08-27 01:00:00",106981,6.491,155.4,1.014,0.1,24.29,111.5491,28.88,29.75,8.38,0,111.4,13.07,29.73,117.4
"2010-08-27 01:00:30",106982,6.653,156.4,0.79,0.101,24.36,111.5474,28.87,29.75,8.41,0,111.4,13.07,29.73,118.4
"2010-08-27 01:01:00",106983,6.495,153.6,1.127,0.105,24.32,111.5465,28.87,29.75,8.42,0,111.4,13.07,29.72,115.6
"2010-08-27 01:01:30",106984,6.49,155.3,0.663,0.115,24.29,111.5452,28.87,29.76,8.42,0,111.4,13.07,29.72,117.3
"2010-08-27 01:02:00",106985,6.366,155.9,1.045,0.092,24.27,111.5455,28.87,29.75,8.41,0,111.4,13.07,29.72,117.9
"2010-08-27 01:02:30",106986,6.143,155.5,0.769,0.112,24.37,111.5449,28.87,29.75,8.41,0,111.4,13.07,29.72,117.5
"2010-08-27 01:03:00",106987,6.413,156.6,1.293,0.093,24.27,111.5449,28.87,29.75,8.44,0,111.4,13.07,29.72,118.6
"2010-08-27 01:03:30",106988,6.269,156.6,1.138,0.155,24.31,111.5449,28.87,29.75,8.43,0,111.4,13.07,29.72,118.6
"2010-08-27 01:04:00",106989,6.093,155.9,0.877,0.086,24.42,111.5449,28.87,29.74,8.42,0,111.4,13.07,29.72,117.9
"2010-08-27 01:04:30",106990,6.322,156.2,1.474,0.123,24.33,111.5441,28.86,29.75,8.41,0,111.4,13.07,29.72,118.2
"2010-08-27 01:05:00",106991,6.444,154.4,1.4,0.061,24.36,111.5421,28.86,29.75,8.4,0,111.4,13.07,29.71,116.4
"2010-08-27 01:05:30",106992,6.386,154.1,1.533,0.049,24.45,111.539,28.85,29.72,8.42,0,111.4,13.07,29.70,116.1
"2010-08-27 01:06:00",106993,6.422,153.3,0.839,0.048,24.41,111.5317,28.83,29.73,8.43,0,111.4,13.07,29.68,115.3
"2010-08-27 01:06:30",106994,6.433,152.2,1.183,0.094,24.43,111.5202,28.8,29.7,8.44,0,111.4,13.07,29.66,114.2
"2010-08-27 01:07:00",106995,6.772,150.9,0.809,0.121,24.39,111.5144,28.79,29.71,8.55,0,111.4,13.07,29.64,112.9
"2010-08-27 01:07:30",106996,6.801,151.2,0.679,0.09,24.46,111.5113,28.78,29.71,8.57,0,111.4,13.07,29.63,113.2
"2010-08-27 01:08:00",106997,6.65,151.2,0.586,0.09,24.34,111.5113,28.78,29.69,8.55,0,111.4,13.07,29.63,113.2
"2010-08-27 01:08:30",106998,6.71,151.4,1.494,0.12,24.35,111.5113,28.78,29.69,8.56,0,111.4,13.07,29.63,113.4
"2010-08-27 01:09:00",106999,6.677,152.9,1.873,0.103,24.44,111.5113,28.78,29.67,8.53,0,111.4,13.07,29.63,114.9
"2010-08-27 01:09:30",107000,6.511,151.6,0.723,0.085,24.39,111.5113,28.78,29.68,8.52,0,111.4,13.07,29.63,113.6
"2010-08-27 01:10:00",107001,6.674,151.9,0.611,0.197,24.47,111.5113,28.78,29.67,8.53,0,111.4,13.07,29.63,113.9
"2010-08-27 01:10:30",107002,7.176,152.4,0.957,0.087,24.43,111.5113,28.78,29.67,8.53,0,111.4,13.07,29.63,114.4
"2010-08-27 01:11:00",107003,7.181,154.9,0.778,0.055,24.5,111.5101,28.78,29.68,8.51,0,111.4,13.07,29.63,116.9
"2010-08-27 01:11:30",107004,7.102,154.1,0.786,0.112,24.56,111.5082,28.77,29.66,8.5,0,111.4,13.07,29.62,116.1
"2010-08-27 01:12:00",107005,7.24,156.7,0.464,0.095,24.66,111.5009,28.75,29.66,8.54,0,111.4,13.07,29.61,118.7
"2010-08-27 01:12:30",107006,7.567,157.8,0.612,0.103,24.66,111.4911,28.73,29.65,8.59,0,111.4,13.07,29.58,119.8
"2010-08-27 01:13:00",107007,7.697,157.5,1.177,0.134,24.64,111.4869,28.72,29.66,8.55,0,111.4,13.07,29.57,119.5
"2010-08-27 01:13:30",107008,7.288,157.4,0.872,0.165,24.63,111.4857,28.71,29.65,8.52,0,111.4,13.07,29.57,119.4
"2010-08-27 01:14:00",107009,7.187,158.2,1.745,0.094,24.58,111.4815,28.7,29.66,8.55,0,111.4,13.07,29.56,120.2
"2010-08-27 01:14:30",107010,7.438,159.5,1.966,0.209,24.54,111.4785,28.7,29.64,8.58,0,111.4,13.07,29.55,121.5
"2010-08-27 01:15:00",107011,7.628,163,0.663,0.157,24.6,111.4782,28.69,29.63,8.66,0,111.4,13.08,29.55,125.0
"2010-08-27 01:15:30",107012,7.333,160.9,1.38,0.134,24.62,111.481,28.7,29.63,8.61,0,111.4,13.08,29.55,122.9
"2010-08-27 01:16:00",107013,7.404,159.8,1.295,0.06,24.62,111.482,28.7,29.63,8.57,0,111.4,13.08,29.56,121.8
"2010-08-27 01:16:30",107014,7.172,157.6,1.344,0.107,24.53,111.4826,28.71,29.63,8.57,0,111.4,13.08,29.56,119.6
"2010-08-27 01:17:00",107015,7.047,157.7,1.299,0.125,24.5,111.4842,28.71,29.63,8.56,0,111.4,13.08,29.56,119.7
"2010-08-27 01:17:30",107016,7.011,158.4,0.905,0.162,24.52,111.4889,28.72,29.62,8.54,0,111.4,13.08,29.57,120.4
"2010-08-27 01:18:00",107017,7.323,157.2,0.902,0.096,24.6,111.4911,28.73,29.62,8.54,0,111.4,13.08,29.58,119.2
"2010-08-27 01:18:30",107018,7.235,159.8,1.562,0.053,24.63,111.4901,28.73,29.61,8.61,0,111.4,13.08,29.58,121.8
"2010-08-27 01:19:00",107019,7.148,162.4,0.472,0.089,24.59,111.4954,28.74,29.61,8.63,0,111.4,13.08,29.59,124.4
"2010-08-27 01:19:30",107020,6.868,162.1,0.542,0.092,24.52,111.4976,28.74,29.61,8.66,0,111.4,13.08,29.60,124.1
"2010-08-27 01:20:00",107021,6.732,162.4,0.478,0.054,24.63,111.4999,28.75,29.6,8.65,0,111.4,13.08,29.60,124.4
"2010-08-27 01:20:30",107022,6.849,162.6,0.603,0.058,24.52,111.5006,28.75,29.61,8.65,0,111.4,13.08,29.60,124.6
"2010-08-27 01:21:00",107023,6.99,161.6,1.372,0.171,24.56,111.4981,28.75,29.61,8.65,0,111.4,13.08,29.60,123.6
"2010-08-27 01:21:30",107024,6.719,159.1,1.79,0.15,24.55,111.486,28.71,29.6,8.64,0,111.4,13.08,29.57,121.1
"2010-08-27 01:22:00",107025,6.845,161,1.994,0.115,24.49,111.4802,28.7,29.58,8.67,0,111.4,13.08,29.55,123.0
"2010-08-27 01:22:30",107026,7.122,163.2,1.725,0.131,24.54,111.476,28.69,29.59,8.77,0,111.4,13.08,29.54,125.2
"2010-08-27 01:23:00",107027,7.049,163.9,0.593,0.114,24.55,111.4721,28.68,29.57,8.81,0,111.4,13.08,29.53,125.9
"2010-08-27 01:23:30",107028,7.209,161.3,0.982,0.117,24.64,111.4721,28.68,29.55,8.78,0,111.4,13.08,29.53,123.3
"2010-08-27 01:24:00",107029,7.188,162.3,1.032,0.108,24.65,111.4718,28.68,29.53,8.73,0,111.4,13.08,29.53,124.3
"2010-08-27 01:24:30",107030,7.161,161.8,0.528,0.073,24.68,111.4701,28.67,29.55,8.66,0,111.4,13.08,29.53,123.8
"2010-08-27 01:25:00",107031,7.175,162.4,0.571,0.072,24.67,111.4648,28.66,29.53,8.58,0,111.4,13.08,29.51,124.4
"2010-08-27 01:25:30",107032,7.016,162.9,0.722,0.049,24.56,111.4597,28.65,29.53,8.55,0,111.4,13.08,29.50,124.9
"2010-08-27 01:26:00",107033,6.915,160.1,0.762,0.09,24.59,111.4589,28.65,29.53,8.56,0,111.4,13.08,29.50,122.1
"2010-08-27 01:26:30",107034,7.072,159.3,0.758,0.136,24.7,111.4618,28.65,29.52,8.59,0,111.4,13.07,29.50,121.3
"2010-08-27 01:27:00",107035,6.947,158.8,0.755,0.068,24.6,111.4609,28.65,29.53,8.57,0,111.4,13.07,29.50,120.8
"2010-08-27 01:27:30",107036,7.009,160.3,0.956,0.066,24.61,111.4614,28.65,29.53,8.57,0,111.4,13.08,29.50,122.3
"2010-08-27 01:28:00",107037,6.934,160.7,0.761,0.117,24.64,111.456,28.64,29.53,8.57,0,111.4,13.07,29.49,122.7
"2010-08-27 01:28:30",107038,6.676,162,1.24,0.086,24.75,111.4555,28.64,29.52,8.54,0,111.4,13.07,29.49,124.0
"2010-08-27 01:29:00",107039,6.574,163.4,0.411,0.067,24.75,111.4557,28.64,29.52,8.55,0,111.4,13.07,29.49,125.4
"2010-08-27 01:29:30",107040,6.797,162.3,0.774,0.122,24.74,111.4553,28.64,29.51,8.66,0,111.4,13.07,29.49,124.3
"2010-08-27 01:30:00",107041,7.047,162.2,0.435,0.049,24.64,111.4536,28.63,29.51,8.62,0,111.4,13.08,29.48,124.2
"2010-08-27 01:30:30",107042,7.013,161.7,0.595,0.05,24.64,111.45,28.62,29.52,8.59,0,111.4,13.08,29.47,123.7
"2010-08-27 01:31:00",107043,6.861,161.8,0.899,0.088,24.71,111.4472,28.62,29.51,8.57,0,111.4,13.08,29.47,123.8
"2010-08-27 01:31:30",107044,6.891,160.1,1.237,0.144,24.76,111.4478,28.62,29.52,8.57,0,111.4,13.08,29.47,122.1
"2010-08-27 01:32:00",107045,6.66,159.8,1.096,0.084,24.83,111.4478,28.62,29.49,8.56,0,111.4,13.08,29.47,121.8
"2010-08-27 01:32:30",107046,6.854,160.5,1.972,0.13,24.77,111.4478,28.62,29.49,8.61,0,111.4,13.08,29.47,122.5
"2010-08-27 01:33:00",107047,6.865,163.3,0.901,0.123,24.81,111.4478,28.62,29.5,8.63,0,111.4,13.08,29.47,125.3
"2010-08-27 01:33:30",107048,7.024,160.1,1.517,0.106,24.74,111.4478,28.62,29.5,8.55,0,111.4,13.08,29.47,122.1
"2010-08-27 01:34:00",107049,6.922,161.3,1.062,0.091,24.78,111.4478,28.62,29.48,8.57,0,111.4,13.08,29.47,123.3
"2010-08-27 01:34:30",107050,6.524,159.9,0.693,0.09,24.8,111.4478,28.62,29.49,8.57,0,111.4,13.08,29.47,121.9
"2010-08-27 01:35:00",107051,6.462,159.4,1.243,0.113,24.72,111.4478,28.62,29.49,8.55,0,111.4,13.08,29.47,121.4
"2010-08-27 01:35:30",107052,6.643,157.3,1.077,0.1,24.8,111.4478,28.62,29.49,8.53,0,111.4,13.09,29.47,119.3
"2010-08-27 01:36:00",107053,6.677,157.2,1.04,0.106,24.78,111.4478,28.62,29.47,8.56,0,111.4,13.09,29.47,119.2
"2010-08-27 01:36:30",107054,6.719,157.6,1.039,0.098,24.81,111.4478,28.62,29.49,8.57,0,111.4,13.09,29.47,119.6
"2010-08-27 01:37:00",107055,6.657,158.5,0.643,0.129,24.78,111.4478,28.62,29.49,8.57,0,111.4,13.09,29.47,120.5
"2010-08-27 01:37:30",107056,6.788,158.4,0.714,0.117,24.78,111.4478,28.62,29.49,8.56,0,111.4,13.09,29.47,120.4
"2010-08-27 01:38:00",107057,6.922,158.5,1.703,0.127,24.73,111.4464,28.61,29.5,8.55,0,111.4,13.09,29.46,120.5
"2010-08-27 01:38:30",107058,6.954,161,0.55,0.076,24.65,111.4399,28.6,29.48,8.58,0,111.4,13.09,29.45,123.0
"2010-08-27 01:39:00",107059,6.868,160.5,0.981,0.063,24.7,111.4304,28.57,29.49,8.59,0,111.4,13.09,29.42,122.5
"2010-08-27 01:39:30",107060,6.797,160.4,0.856,0.054,24.77,111.4245,28.56,29.48,8.56,0,111.4,13.09,29.41,122.4
"2010-08-27 01:40:00",107061,6.723,160.6,0.752,0.097,24.79,111.4228,28.55,29.48,8.57,0,111.3,13.09,29.40,122.6
"2010-08-27 01:40:30",107062,6.741,158.9,1.23,0.064,24.79,111.4206,28.55,29.47,8.6,0,111.3,13.09,29.40,120.9
"2010-08-27 01:41:00",107063,6.831,159.2,0.84,0.108,24.7,111.4144,28.53,29.47,8.6,0,111.3,13.09,29.38,121.2
"2010-08-27 01:41:30",107064,6.813,159.7,0.812,0.087,24.77,111.4144,28.53,29.45,8.64,0,111.3,13.09,29.38,121.7
"2010-08-27 01:42:00",107065,6.911,161,1.305,0.082,24.69,111.4148,28.53,29.46,8.68,0,111.3,13.09,29.38,123.0
"2010-08-27 01:42:30",107066,6.939,160.8,1.405,0.105,24.71,111.4154,28.53,29.45,8.69,0,111.3,13.08,29.38,122.8
"2010-08-27 01:43:00",107067,6.967,159,1.022,0.088,24.71,111.4198,28.54,29.44,8.7,0,111.3,13.08,29.40,121.0
"2010-08-27 01:43:30",107068,7.14,159.6,1.077,0.168,24.68,111.4214,28.55,29.44,8.86,0,111.3,13.08,29.40,121.6
"2010-08-27 01:44:00",107069,7.368,161.5,1.595,0.129,24.78,111.4116,28.52,29.44,9.03,0,111.3,13.08,29.37,123.5
"2010-08-27 01:44:30",107070,7.325,162.6,1.005,0.076,24.85,111.4023,28.5,29.42,8.98,0,111.3,13.08,29.35,124.6
"2010-08-27 01:45:00",107071,7.175,164.8,1.24,0.101,24.77,111.4019,28.5,29.4,8.95,0,111.3,13.08,29.35,126.8
"2010-08-27 01:45:30",107072,7.463,162.9,0.809,0.156,24.76,111.4002,28.49,29.41,9.08,0,111.3,13.08,29.35,124.9
"2010-08-27 01:46:00",107073,7.492,164.7,0.938,0.245,24.82,111.4017,28.5,29.39,9.11,0,111.3,13.08,29.35,126.7
"2010-08-27 01:46:30",107074,7.97,162.1,1.343,0.217,24.79,111.4025,28.5,29.37,9.19,0,111.3,13.08,29.35,124.1
"2010-08-27 01:47:00",107075,7.627,162.9,0.778,0.212,24.79,111.4039,28.5,29.37,9.07,0,111.3,13.08,29.36,124.9
"2010-08-27 01:47:30",107076,7.746,162.6,0.834,0.109,24.77,111.4037,28.5,29.37,9.12,0,111.3,13.09,29.35,124.6
"2010-08-27 01:48:00",107077,7.919,163,1.435,0.216,24.77,111.3985,28.49,29.37,9.2,0,111.3,13.09,29.34,125.0
"2010-08-27 01:48:30",107078,8.13,161.2,0.369,0.079,24.71,111.392,28.47,29.36,9.45,0,111.3,13.09,29.32,123.2